C/2020 H6 ( ATLAS )

Japanese version
Home page
Updated on July 22, 2020

---------------------------------------------------------------------

* Profile

Discovery Date April 22, 2020
Magnitude 18.1 mag
Discoverer James Robinson (Asteroid Terrestrial-Impact Last Alert System (ATLAS) search program)

* Orbital Elements

Epoch 2021 Sept. 23.0 TT = JDT 2459480.5
T 2021 Oct. 1.07959 TT                                  Rudenko
q   4.7028682            (2000.0)            P               Q
z  -0.0001547      Peri.   20.34855     -0.74635959     +0.37991704
 +/-0.0000460      Node   213.70648     -0.65981288     -0.31487307
e   1.0007274      Incl.   79.96726     +0.08714546     +0.86978043
From 94 observations 2020 Apr. 22-June 27, mean residual 0".4.

* Finding Charts

* Magnitudes Graph

        m1 = 6.5 + 5 log d + 10.0 log r

---------------------------------------------------------------------

The orbital elements are published on M.P.E.C. 2020-O07.
The charts are made with StellaNavigator Ver.10 (AstroArts).
The magnitudes graphs are made with Comet for Windows.

---------------------------------------------------------------------

Copyright(C) Seiichi Yoshida (comet@aerith.net). All rights reserved.